Location: Boitzum
(52.1496°N, 9.6943°E)
Time: 23:04:57
(UTC+00:00)

TIMED - Pass Details

Date: 13 January 2026
Orbit: 581 x 584 km, 74.1° (Epoch: 7 February)

Event Time Altitude Azimuth Distance (km) Brightness Sun altitude
Rises 05:46:39 0° 208° (SSW) 2,792 7.8 -14.3°
Reaches altitude 10° 05:48:52 10° 210° (SSW) 1,897 6.9 -14.0°
Maximum altitude 05:53:05 75° 295° (WNW) 609 4.3 -13.4°
Drops below altitude 10° 05:57:22 10° 22° (NNE) 1,913 7.1 -12.7°
Sets 05:59:36 0° 25° (NNE) 2,818 8.0 -12.4°
